sat.trackr.live / text

‹ back to catalog

STARLINK-37857

NORAD 69429 · 2026-126K

PAYLOAD ACTIVE UNKNOWN

§ Identity

Operator
Country
US
Launch date
2026-06-07
Launch site
AFWTR
Launch vehicle
Mass (kg)
RCS (m²)

Purposes: comms

External: N2YO · Heavens-Above · Gunter

§ Orbital elements

Epoch: 2026-09-18T22:06:54.510336Z

Period
93.91 min
Inclination
97.2863°
Eccentricity
0.0002317
Mean motion
15.33456309 rev/d
Perigee alt
463.9 km
Apogee alt
467.1 km
Semi-major
6,843.6 km
B*
5.5478e-4
RAAN
123.1968°
Arg perigee
61.7818°
Mean anomaly
298.3658°
Rev number
1,728

§ Raw data

STARLINK-378571 69429U 26126K   26261.92146424  .00017885  00000+0  55478-3 0  99962 69429  97.2863 123.1968 0002317  61.7818 298.3658 15.33456309 17289

JSON: /api/v1/satellites/69429 · /tle

For live sub-satellite position, see the globe view (requires WebGL).

§ Visibility from observer

Set your observer location to see the next 7 days of passes ≥ 10°. The values pass through the URL so the page stays shareable.

No JS? Fill the form by hand. The geolocation button needs JavaScript.